• In Latvia
  • List of Countries
  • For 7 days
  • Water Temperature
  • Satellite Maps
  • Weather Map
  • Weather Widgets
  • user-avatar
    Login

    Hourly Weather Wiktoria

    Today, 25 November, Saturday

    Time Temperature Precipitation Wind Pressure Humidity
    00:00 +22°C° 0 mm 3 mps 748 mmHg 56%
    01:00 +22°C° 0 mm 3 mps 748 mmHg 55%
    02:00 +21°C° 0 mm 3 mps 748 mmHg 57%
    03:00 +21°C° 0 mm 3 mps 748 mmHg 60%
    04:00 +19°C° 0 mm 2 mps 748 mmHg 70%
    05:00 +20°C° 0 mm 3 mps 748 mmHg 68%
    06:00 +20°C° 0 mm 4 mps 749 mmHg 65%
    07:00 +21°C° 0 mm 5 mps 749 mmHg 63%
    08:00 +23°C° 0 mm 5 mps 749 mmHg 58%
    09:00 +26°C° 0 mm 5 mps 749 mmHg 53%
    10:00 +27°C° 0 mm 5 mps 749 mmHg 48%
    11:00 +29°C° 0 mm 5 mps 748 mmHg 43%
    12:00 +32°C° 0 mm 5 mps 748 mmHg 38%
    13:00 +33°C° 0 mm 5 mps 748 mmHg 33%
    14:00 +32°C° 0.2 mm 4 mps 748 mmHg 37%
    15:00 +30°C° 0.2 mm 4 mps 747 mmHg 42%
    16:00 +28°C° 0.2 mm 4 mps 747 mmHg 47%
    17:00 +26°C° 0.2 mm 3 mps 747 mmHg 56%
    18:00 +25°C° 0.2 mm 3 mps 747 mmHg 65%
    19:00 +23°C° 0.2 mm 2 mps 747 mmHg 73%
    20:00 +21°C° 0.2 mm 2 mps 747 mmHg 75%
    21:00 +21°C° 0.2 mm 2 mps 748 mmHg 77%
    22:00 +20°C° 0.2 mm 2 mps 748 mmHg 79%
    23:00 +20°C° 0.4 mm 2 mps 747 mmHg 81%

    Tomorrow, 26 November, Sunday

    Time Temperature Precipitation Wind Pressure Humidity
    00:00 +19°C° 0.4 mm 2 mps 747 mmHg 83%
    01:00 +19°C° 0.4 mm 2 mps 747 mmHg 86%
    02:00 +19°C° 0.6 mm 2 mps 747 mmHg 86%
    03:00 +19°C° 0.6 mm 2 mps 747 mmHg 87%
    04:00 +19°C° 0.6 mm 2 mps 747 mmHg 87%
    05:00 +19°C° 0.3 mm 3 mps 747 mmHg 85%
    06:00 +20°C° 0.3 mm 4 mps 747 mmHg 83%
    07:00 +20°C° 0.3 mm 5 mps 747 mmHg 81%
    08:00 +22°C° 0.3 mm 5 mps 747 mmHg 75%
    09:00 +23°C° 0.3 mm 5 mps 747 mmHg 68%
    10:00 +26°C° 0.3 mm 6 mps 747 mmHg 62%
    11:00 +27°C° 0 mm 5 mps 747 mmHg 57%
    12:00 +29°C° 0 mm 5 mps 746 mmHg 52%
    13:00 +30°C° 0 mm 4 mps 746 mmHg 47%
    14:00 +32°C° 0 mm 4 mps 745 mmHg 44%
    15:00 +33°C° 0 mm 4 mps 745 mmHg 42%
    16:00 +33°C° 0 mm 4 mps 744 mmHg 40%
    17:00 +30°C° 0.3 mm 4 mps 744 mmHg 47%
    18:00 +28°C° 0.3 mm 4 mps 745 mmHg 55%
    19:00 +25°C° 0.3 mm 4 mps 745 mmHg 63%
    20:00 +23°C° 1.4 mm 4 mps 745 mmHg 73%
    21:00 +21°C° 1.4 mm 3 mps 746 mmHg 82%
    22:00 +19°C° 1.4 mm 3 mps 747 mmHg 91%
    23:00 +19°C° 0.5 mm 3 mps 747 mmHg 92%

    Day after tomorrow, 27 November, Monday

    Time Temperature Precipitation Wind Pressure Humidity
    00:00 +19°C° 0.5 mm 3 mps 747 mmHg 93%
    01:00 +18°C° 0.5 mm 3 mps 747 mmHg 94%
    02:00 +18°C° 0 mm 3 mps 747 mmHg 94%
    03:00 +18°C° 0 mm 3 mps 747 mmHg 94%
    04:00 +17°C° 0 mm 2 mps 746 mmHg 95%
    05:00 +18°C° 0 mm 3 mps 747 mmHg 91%
    06:00 +19°C° 0 mm 3 mps 747 mmHg 87%
    07:00 +20°C° 0 mm 3 mps 748 mmHg 84%
    08:00 +22°C° 0 mm 3 mps 748 mmHg 76%
    09:00 +25°C° 0 mm 3 mps 748 mmHg 69%
    10:00 +27°C° 0 mm 3 mps 748 mmHg 61%
    11:00 +27°C° 0 mm 3 mps 748 mmHg 58%
    12:00 +28°C° 0 mm 4 mps 748 mmHg 54%
    13:00 +29°C° 0 mm 4 mps 747 mmHg 50%
    14:00 +29°C° 0 mm 5 mps 747 mmHg 49%
    15:00 +29°C° 0 mm 5 mps 747 mmHg 48%
    16:00 +29°C° 0 mm 5 mps 747 mmHg 47%
    17:00 +27°C° 0 mm 5 mps 747 mmHg 53%
    18:00 +25°C° 0 mm 5 mps 748 mmHg 58%
    19:00 +22°C° 0 mm 5 mps 748 mmHg 63%
    20:00 +21°C° 0 mm 5 mps 749 mmHg 66%
    21:00 +19°C° 0 mm 5 mps 749 mmHg 69%
    22:00 +17°C° 0 mm 5 mps 750 mmHg 73%
    23:00 +17°C° 0 mm 4 mps 750 mmHg 77%

    28 November, Tuesday

    Time Temperature Precipitation Wind Pressure Humidity
    00:00 +15°C° 0 mm 4 mps 749 mmHg 81%
    01:00 +16°C° 0 mm 3 mps 749 mmHg 85%
    02:00 +14°C° 0 mm 3 mps 749 mmHg 87%
    03:00 +14°C° 0 mm 3 mps 749 mmHg 89%
    04:00 +14°C° 0 mm 3 mps 749 mmHg 90%
    05:00 +16°C° 0 mm 3 mps 749 mmHg 86%
    06:00 +18°C° 0 mm 3 mps 750 mmHg 81%
    07:00 +19°C° 0 mm 2 mps 750 mmHg 76%
    08:00 +23°C° 0 mm 2 mps 750 mmHg 66%
    09:00 +26°C° 0 mm 1 mps 750 mmHg 57%
    10:00 +29°C° 0 mm 1 mps 750 mmHg 47%
    11:00 +30°C° 0 mm 1 mps 750 mmHg 40%
    12:00 +31°C° 0 mm 1 mps 749 mmHg 33%
    13:00 +34°C° 0 mm 2 mps 749 mmHg 27%
    14:00 +34°C° 0 mm 2 mps 749 mmHg 26%
    15:00 +34°C° 0 mm 2 mps 748 mmHg 25%
    16:00 +34°C° 0 mm 2 mps 748 mmHg 24%
    17:00 +31°C° 0 mm 2 mps 748 mmHg 29%
    18:00 +29°C° 0 mm 2 mps 748 mmHg 35%
    19:00 +27°C° 0 mm 2 mps 749 mmHg 41%
    20:00 +26°C° 0 mm 2 mps 749 mmHg 48%
    21:00 +24°C° 0 mm 2 mps 749 mmHg 54%
    22:00 +21°C° 0 mm 3 mps 750 mmHg 61%
    23:00 +21°C° 0 mm 3 mps 750 mmHg 64%

    29 November, Wednesday

    Time Temperature Precipitation Wind Pressure Humidity
    00:00 +20°C° 0 mm 2 mps 749 mmHg 68%
    01:00 +19°C° 0 mm 2 mps 749 mmHg 72%
    02:00 +19°C° 0 mm 2 mps 749 mmHg 71%
    03:00 +19°C° 0 mm 2 mps 749 mmHg 71%
    04:00 +19°C° 0 mm 2 mps 749 mmHg 70%
    05:00 +20°C° 0 mm 3 mps 749 mmHg 68%
    06:00 +22°C° 0 mm 3 mps 750 mmHg 66%
    07:00 +25°C° 0 mm 4 mps 750 mmHg 64%
    08:00 +27°C° 0 mm 4 mps 750 mmHg 57%
    09:00 +30°C° 0 mm 3 mps 750 mmHg 50%
    10:00 +33°C° 0 mm 3 mps 749 mmHg 43%
    11:00 +35°C° 0 mm 3 mps 749 mmHg 36%
    12:00 +37°C° 0 mm 2 mps 748 mmHg 29%
    13:00 +38°C° 0 mm 2 mps 748 mmHg 22%
    14:00 +38°C° 0 mm 2 mps 747 mmHg 21%
    15:00 +37°C° 0 mm 1 mps 747 mmHg 21%
    16:00 +37°C° 0 mm 1 mps 747 mmHg 21%
    17:00 +36°C° 0 mm 2 mps 747 mmHg 26%
    18:00 +34°C° 0 mm 2 mps 747 mmHg 31%
    19:00 +31°C° 0 mm 2 mps 747 mmHg 35%
    20:00 +30°C° 0 mm 2 mps 747 mmHg 38%
    21:00 +29°C° 0 mm 2 mps 747 mmHg 40%
    22:00 +28°C° 0 mm 2 mps 747 mmHg 43%
    23:00 +27°C° 0 mm 3 mps 747 mmHg 45%

    30 November, Thursday

    Time Temperature Precipitation Wind Pressure Humidity
    00:00 +27°C° 0 mm 3 mps 747 mmHg 47%
    01:00 +27°C° 0 mm 3 mps 747 mmHg 49%
    02:00 +26°C° 0.3 mm 3 mps 747 mmHg 57%
    03:00 +25°C° 0.3 mm 3 mps 747 mmHg 64%
    04:00 +24°C° 0.3 mm 2 mps 747 mmHg 72%
    05:00 +24°C° 0.6 mm 3 mps 748 mmHg 72%
    06:00 +25°C° 0.6 mm 3 mps 748 mmHg 73%
    07:00 +26°C° 0.6 mm 3 mps 748 mmHg 74%
    08:00 +27°C° 0 mm 4 mps 748 mmHg 66%
    09:00 +29°C° 0 mm 4 mps 748 mmHg 58%
    10:00 +32°C° 0 mm 4 mps 748 mmHg 50%
    11:00 +32°C° 0.3 mm 5 mps 747 mmHg 49%
    12:00 +32°C° 0.3 mm 5 mps 747 mmHg 48%
    13:00 +33°C° 0.3 mm 5 mps 746 mmHg 48%
    14:00 +32°C° 0.3 mm 5 mps 746 mmHg 49%
    15:00 +32°C° 0.3 mm 4 mps 746 mmHg 50%
    16:00 +32°C° 0.3 mm 4 mps 745 mmHg 50%
    17:00 +30°C° 0.9 mm 3 mps 745 mmHg 57%
    18:00 +28°C° 0.9 mm 3 mps 745 mmHg 64%
    19:00 +26°C° 0.9 mm 2 mps 745 mmHg 71%
    20:00 +25°C° 0.3 mm 2 mps 745 mmHg 76%
    21:00 +24°C° 0.3 mm 3 mps 745 mmHg 81%
    22:00 +22°C° 0.3 mm 3 mps 745 mmHg 86%
    23:00 +22°C° 0.3 mm 3 mps 745 mmHg 88%
    Show more